Location: *
(37.5724°S, 58.0067°E)
Time: 11:40:45
(UTC+00:00)

CZ-2D R/B - Pass Details

Date: 26 September 2020
Orbit: 520 x 539 km, 97.4° (Epoch: 30 October)

Event Time Altitude Azimuth Distance (km) Brightness Sun altitude
Rises 14:52:39 0° 160° (SSE) 2,716 6.8 -9.6°
Reaches altitude 10° 14:54:54 10° 151° (SSE) 1,819 5.8 -10.0°
Maximum altitude 14:58:35 38° 82° (E) 843 3.8 -10.7°
Drops below altitude 10° 15:02:13 10° 13° (NNE) 1,801 5.7 -11.5°
Sets 15:04:26 0° 4° (N) 2,685 6.7 -11.9°
